ニェウイミン第1彗星

28P/Neujmin 1 (2021)

English version
Home page
Updated on August 15, 2020

---------------------------------------------------------------------

・ プロフィール

・ 軌道要素

Epoch 2021 Mar. 7.0 TT = JDT 2459280.5
T 2021 Mar. 11.88440 TT                                 Rudenko
q   1.5782640            (2000.0)            P               Q
n   0.05344607     Peri.  347.41112     +0.89842020     +0.43523484
a   6.9800553      Node   346.33229     -0.37842498     +0.69984989
e   0.7738895      Incl.   14.31174     -0.22279068     +0.56637511
P  18.4
From 491 observations 1931 Aug. 20-2020 July 31, mean residual 0".4.

・ 星図

・ 光度変化

        H = 12.2  G = 0.15

---------------------------------------------------------------------

軌道要素はM.P.E.C. 2020-P19に掲載されたものです。
星図はステラナビゲータ Ver.10 (アストロアーツ) で作成したものです。
光度グラフはComet for Windowsで作成したものです。

---------------------------------------------------------------------

Copyright(C) Seiichi Yoshida (comet@aerith.net). All rights reserved.